Time,TemperatureF,DewpointF,PressureIn,WindDirection,WindDirectionDegrees,WindSpeedMPH,WindSpeedGustMPH,Humidity,HourlyPrecipIn,Conditions,Clouds,dailyrainin,SolarRadiationWatts/m^2,SoftwareType,DateUTC
2013-05-21 00:02:00,67.5,38.1,29.87,SW,224,0.0,0.0,34,0.00,,,0.00,0.0,meteohub,2013-05-21 07:02:00,
2013-05-21 00:07:00,66.9,38.3,29.87,SW,224,0.0,0.0,35,0.00,,,0.00,0.0,meteohub,2013-05-21 07:07:00,
2013-05-21 00:12:00,66.7,39.6,29.87,SW,224,0.0,0.0,37,0.00,,,0.00,0.0,meteohub,2013-05-21 07:12:00,
2013-05-21 00:17:00,66.6,40.8,29.86,SW,224,0.0,0.0,39,0.00,,,0.00,0.0,meteohub,2013-05-21 07:17:00,
2013-05-21 00:22:00,66.2,41.2,29.86,SW,224,0.0,0.0,40,0.00,,,0.00,0.0,meteohub,2013-05-21 07:22:00,
2013-05-21 00:27:00,65.8,40.8,29.86,SW,224,0.0,0.0,40,0.00,,,0.00,0.0,meteohub,2013-05-21 07:27:00,
2013-05-21 00:32:00,65.8,41.5,29.86,SW,224,0.0,0.0,41,0.00,,,0.00,0.0,meteohub,2013-05-21 07:32:00,
2013-05-21 00:37:00,65.7,41.9,29.86,SW,224,0.0,0.0,42,0.00,,,0.00,0.0,meteohub,2013-05-21 07:37:00,
2013-05-21 00:42:00,65.5,41.7,29.86,SW,224,0.0,0.0,42,0.00,,,0.00,0.0,meteohub,2013-05-21 07:42:00,
2013-05-21 00:48:00,65.1,40.8,29.86,SW,224,0.0,0.0,41,0.00,,,0.00,0.0,meteohub,2013-05-21 07:48:00,
2013-05-21 00:53:00,64.9,40.1,29.86,SW,224,0.0,0.0,40,0.00,,,0.00,0.0,meteohub,2013-05-21 07:53:00,
2013-05-21 00:57:00,64.8,40.5,29.86,SW,224,0.0,0.0,41,0.00,,,0.00,0.0,meteohub,2013-05-21 07:57:00,
2013-05-21 01:03:00,64.6,40.3,29.86,SW,224,0.0,0.0,41,0.00,,,0.00,0.0,meteohub,2013-05-21 08:03:00,
2013-05-21 01:08:00,64.6,40.3,29.86,SW,224,0.0,0.0,41,0.00,,,0.00,0.0,meteohub,2013-05-21 08:08:00,
2013-05-21 01:13:00,64.4,41.4,29.86,SW,224,0.0,0.0,43,0.00,,,0.00,0.0,meteohub,2013-05-21 08:13:00,
2013-05-21 01:18:00,64.2,41.2,29.86,SW,224,0.0,0.0,43,0.00,,,0.00,0.0,meteohub,2013-05-21 08:18:00,
2013-05-21 01:23:00,64.2,41.2,29.86,SW,224,0.0,0.0,43,0.00,,,0.00,0.0,meteohub,2013-05-21 08:23:00,
2013-05-21 01:28:00,64.0,41.2,29.85,SW,224,0.0,0.0,43,0.00,,,0.00,0.0,meteohub,2013-05-21 08:28:00,
2013-05-21 01:33:00,64.0,41.2,29.85,SW,224,0.0,0.0,43,0.00,,,0.00,0.0,meteohub,2013-05-21 08:33:00,
2013-05-21 01:38:00,63.9,40.3,29.85,SW,224,0.0,0.0,42,0.00,,,0.00,0.0,meteohub,2013-05-21 08:38:00,
2013-05-21 01:43:00,63.9,39.7,29.85,SW,224,0.0,0.0,41,0.00,,,0.00,0.0,meteohub,2013-05-21 08:43:00,
2013-05-21 01:48:00,63.7,39.6,29.85,SW,224,0.0,0.0,41,0.00,,,0.00,0.0,meteohub,2013-05-21 08:48:00,
2013-05-21 01:53:00,63.7,40.1,29.85,SW,224,0.0,0.0,42,0.00,,,0.00,0.0,meteohub,2013-05-21 08:53:00,
2013-05-21 01:58:00,63.5,39.9,29.85,SW,224,0.0,0.0,42,0.00,,,0.00,0.0,meteohub,2013-05-21 08:58:00,
2013-05-21 02:03:00,63.3,40.5,29.85,SW,224,0.0,0.0,43,0.00,,,0.00,0.0,meteohub,2013-05-21 09:03:00,
2013-05-21 02:08:00,63.1,40.3,29.84,SW,224,0.0,0.0,43,0.00,,,0.00,0.0,meteohub,2013-05-21 09:08:00,
2013-05-21 02:13:00,63.1,40.8,29.84,SW,224,0.0,0.0,44,0.00,,,0.00,0.0,meteohub,2013-05-21 09:13:00,
2013-05-21 02:18:00,62.8,39.9,29.84,SW,224,0.0,0.0,43,0.00,,,0.00,0.0,meteohub,2013-05-21 09:18:00,
2013-05-21 02:23:00,62.6,39.7,29.84,SW,224,0.0,0.0,43,0.00,,,0.00,0.0,meteohub,2013-05-21 09:23:00,
2013-05-21 02:28:00,62.4,39.0,29.84,SW,224,0.0,0.0,42,0.00,,,0.00,0.0,meteohub,2013-05-21 09:28:00,
2013-05-21 02:33:00,62.2,39.4,29.84,SW,224,0.0,0.0,43,0.00,,,0.00,0.0,meteohub,2013-05-21 09:33:00,
2013-05-21 02:38:00,62.2,39.4,29.84,SW,224,0.0,0.0,43,0.00,,,0.00,0.0,meteohub,2013-05-21 09:38:00,
2013-05-21 02:43:00,62.1,39.4,29.83,SW,224,0.0,0.0,43,0.00,,,0.00,0.0,meteohub,2013-05-21 09:43:00,
2013-05-21 02:48:00,62.1,39.9,29.83,SW,224,0.0,0.0,44,0.00,,,0.00,0.0,meteohub,2013-05-21 09:48:00,
2013-05-21 02:53:00,61.9,40.3,29.83,SW,224,0.0,0.0,45,0.00,,,0.00,0.0,meteohub,2013-05-21 09:53:00,
2013-05-21 02:58:00,61.5,39.4,29.83,SW,224,0.0,0.0,44,0.00,,,0.00,0.0,meteohub,2013-05-21 09:58:00,
2013-05-21 03:03:00,61.3,39.7,29.83,SW,224,0.0,0.0,45,0.00,,,0.00,0.0,meteohub,2013-05-21 10:03:00,
2013-05-21 03:08:00,61.2,39.7,29.83,SW,224,0.0,0.0,45,0.00,,,0.00,0.0,meteohub,2013-05-21 10:08:00,
2013-05-21 03:13:00,61.0,38.8,29.83,SW,224,0.0,0.0,44,0.00,,,0.00,0.0,meteohub,2013-05-21 10:13:00,
2013-05-21 03:18:00,61.0,39.6,29.83,SW,224,0.0,0.0,45,0.00,,,0.00,0.0,meteohub,2013-05-21 10:18:00,
2013-05-21 03:23:00,61.0,38.8,29.83,SW,224,0.0,0.0,44,0.00,,,0.00,0.0,meteohub,2013-05-21 10:23:00,
2013-05-21 03:28:00,60.8,38.1,29.83,SW,224,0.0,0.0,43,0.00,,,0.00,0.0,meteohub,2013-05-21 10:28:00,
2013-05-21 03:33:00,61.0,37.8,29.83,SW,224,0.0,0.0,42,0.00,,,0.00,0.0,meteohub,2013-05-21 10:33:00,
2013-05-21 03:38:00,61.0,38.3,29.83,SW,224,0.0,0.0,43,0.00,,,0.00,0.0,meteohub,2013-05-21 10:38:00,
2013-05-21 03:43:00,61.0,39.6,29.82,SW,224,0.0,0.0,45,0.00,,,0.00,0.0,meteohub,2013-05-21 10:43:00,
2013-05-21 03:48:00,61.0,39.6,29.83,SW,224,0.0,0.0,45,0.00,,,0.00,0.0,meteohub,2013-05-21 10:48:00,
2013-05-21 03:53:00,61.0,38.3,29.83,SW,224,0.0,0.0,43,0.00,,,0.00,0.0,meteohub,2013-05-21 10:53:00,
2013-05-21 03:58:00,60.8,37.6,29.82,SW,224,0.0,0.0,42,0.00,,,0.00,0.0,meteohub,2013-05-21 10:58:00,
2013-05-21 04:03:00,60.6,37.9,29.82,SW,224,0.0,0.0,43,0.00,,,0.00,0.0,meteohub,2013-05-21 11:03:00,
2013-05-21 04:08:00,60.6,38.7,29.82,SW,224,0.0,0.0,44,0.00,,,0.00,0.0,meteohub,2013-05-21 11:08:00,
2013-05-21 04:13:00,60.6,38.7,29.82,SW,224,0.0,0.0,44,0.00,,,0.00,0.0,meteohub,2013-05-21 11:13:00,
2013-05-21 04:18:00,60.4,39.6,29.82,SW,224,0.0,0.0,46,0.00,,,0.00,0.0,meteohub,2013-05-21 11:18:00,
2013-05-21 04:23:00,60.4,39.6,29.82,SW,224,0.0,0.0,46,0.00,,,0.00,0.0,meteohub,2013-05-21 11:23:00,
2013-05-21 04:28:00,60.3,39.9,29.82,SW,224,0.0,0.0,47,0.00,,,0.00,0.0,meteohub,2013-05-21 11:28:00,
2013-05-21 04:33:00,60.3,39.9,29.82,SW,224,0.0,0.0,47,0.00,,,0.00,0.0,meteohub,2013-05-21 11:33:00,
2013-05-21 04:38:00,60.1,39.7,29.82,SW,224,0.0,0.0,47,0.00,,,0.00,0.0,meteohub,2013-05-21 11:38:00,
2013-05-21 04:43:00,59.9,39.6,29.82,SW,224,0.0,0.0,47,0.00,,,0.00,0.0,meteohub,2013-05-21 11:43:00,
2013-05-21 04:48:00,59.7,39.9,29.82,SW,224,0.0,0.0,48,0.00,,,0.00,0.0,meteohub,2013-05-21 11:48:00,
2013-05-21 04:53:00,59.5,39.9,29.82,SW,224,0.0,0.0,48,0.00,,,0.00,0.0,meteohub,2013-05-21 11:53:00,
2013-05-21 04:59:00,59.4,40.3,29.82,SW,224,0.0,0.0,49,0.00,,,0.00,0.0,meteohub,2013-05-21 11:59:00,
2013-05-21 05:04:00,59.4,40.6,29.82,SW,224,0.0,0.0,50,0.00,,,0.00,0.0,meteohub,2013-05-21 12:04:00,
2013-05-21 05:09:00,59.2,40.6,29.82,SW,224,0.0,0.0,50,0.00,,,0.00,0.0,meteohub,2013-05-21 12:09:00,
2013-05-21 05:14:00,58.8,39.7,29.83,SW,224,0.0,0.0,49,0.00,,,0.00,0.0,meteohub,2013-05-21 12:14:00,
2013-05-21 05:19:00,58.5,39.4,29.83,SW,224,0.0,0.0,49,0.00,,,0.00,0.0,meteohub,2013-05-21 12:19:00,
2013-05-21 05:24:00,58.5,39.9,29.83,SW,224,0.0,0.0,50,0.00,,,0.00,0.0,meteohub,2013-05-21 12:24:00,
2013-05-21 05:29:00,58.3,40.3,29.83,SW,224,0.0,0.0,51,0.00,,,0.00,0.0,meteohub,2013-05-21 12:29:00,
2013-05-21 05:34:00,57.9,39.9,29.83,SW,224,0.0,0.0,51,0.00,,,0.00,0.0,meteohub,2013-05-21 12:34:00,
2013-05-21 05:39:00,57.7,39.7,29.83,SW,224,0.0,0.0,51,0.00,,,0.00,0.0,meteohub,2013-05-21 12:39:00,
2013-05-21 05:44:00,57.7,40.6,29.83,SW,224,0.0,0.0,53,0.00,,,0.00,0.0,meteohub,2013-05-21 12:44:00,
2013-05-21 05:49:00,57.6,40.1,29.83,SW,224,0.0,0.0,52,0.00,,,0.00,0.0,meteohub,2013-05-21 12:49:00,
2013-05-21 05:54:00,57.6,39.6,29.83,SW,224,0.0,0.0,51,0.00,,,0.00,9.0,meteohub,2013-05-21 12:54:00,
2013-05-21 05:59:00,57.4,39.4,29.83,SW,224,0.0,0.0,51,0.00,,,0.00,12.0,meteohub,2013-05-21 12:59:00,
2013-05-21 06:04:00,57.4,39.4,29.83,SW,224,0.0,0.0,51,0.00,,,0.00,14.0,meteohub,2013-05-21 13:04:00,
2013-05-21 06:09:00,57.4,39.4,29.83,SW,224,0.0,0.0,51,0.00,,,0.00,19.0,meteohub,2013-05-21 13:09:00,
2013-05-21 06:14:00,57.6,39.6,29.83,SW,224,0.0,0.0,51,0.00,,,0.00,23.0,meteohub,2013-05-21 13:14:00,
2013-05-21 06:19:00,57.6,40.1,29.83,SW,224,0.0,0.0,52,0.00,,,0.00,25.0,meteohub,2013-05-21 13:19:00,
2013-05-21 06:24:00,57.7,39.7,29.83,SW,224,0.0,0.0,51,0.00,,,0.00,35.0,meteohub,2013-05-21 13:24:00,
2013-05-21 06:29:00,57.9,39.9,29.83,SW,224,0.0,0.0,51,0.00,,,0.00,46.0,meteohub,2013-05-21 13:29:00,
2013-05-21 06:34:00,57.9,39.9,29.83,SW,224,0.0,0.0,51,0.00,,,0.00,53.0,meteohub,2013-05-21 13:34:00,
2013-05-21 06:39:00,58.3,40.3,29.83,SW,224,0.0,0.0,51,0.00,,,0.00,54.0,meteohub,2013-05-21 13:39:00,
2013-05-21 06:44:00,58.3,40.3,29.83,SW,224,0.0,0.0,51,0.00,,,0.00,54.0,meteohub,2013-05-21 13:44:00,
2013-05-21 06:49:00,58.5,40.5,29.83,SW,224,0.0,0.0,51,0.00,,,0.00,51.0,meteohub,2013-05-21 13:49:00,
2013-05-21 06:54:00,58.6,40.6,29.83,SW,224,0.0,0.0,51,0.00,,,0.00,54.0,meteohub,2013-05-21 13:54:00,
2013-05-21 06:59:00,58.8,41.2,29.83,SW,224,0.0,0.0,52,0.00,,,0.00,79.0,meteohub,2013-05-21 13:59:00,
2013-05-21 07:04:00,59.0,41.4,29.83,SW,224,0.0,0.0,52,0.00,,,0.00,132.0,meteohub,2013-05-21 14:04:00,
2013-05-21 07:09:00,59.4,42.8,29.83,SW,224,0.0,0.0,54,0.00,,,0.00,120.0,meteohub,2013-05-21 14:09:00,
2013-05-21 07:14:00,59.7,43.0,29.83,SW,224,0.0,0.0,54,0.00,,,0.00,225.0,meteohub,2013-05-21 14:14:00,
2013-05-21 07:19:00,60.4,42.8,29.83,SW,224,0.0,0.0,52,0.00,,,0.00,225.0,meteohub,2013-05-21 14:19:00,
2013-05-21 07:24:00,61.2,43.3,29.83,SW,224,0.0,0.0,52,0.00,,,0.00,167.0,meteohub,2013-05-21 14:24:00,
2013-05-21 07:29:00,61.9,43.0,29.83,SW,224,0.0,0.0,50,0.00,,,0.00,188.0,meteohub,2013-05-21 14:29:00,
2013-05-21 07:34:00,62.8,45.0,29.83,SW,224,0.0,0.0,52,0.00,,,0.00,186.0,meteohub,2013-05-21 14:34:00,
2013-05-21 07:39:00,63.3,44.4,29.84,SW,224,0.0,0.0,50,0.00,,,0.00,336.0,meteohub,2013-05-21 14:39:00,
2013-05-21 07:44:00,64.2,44.1,29.84,SW,224,0.0,0.0,48,0.00,,,0.00,334.0,meteohub,2013-05-21 14:44:00,
2013-05-21 07:49:00,65.3,45.7,29.84,SW,224,0.0,0.0,49,0.00,,,0.00,244.0,meteohub,2013-05-21 14:49:00,
2013-05-21 07:54:00,66.0,44.1,29.84,SW,224,0.0,0.0,45,0.00,,,0.00,163.0,meteohub,2013-05-21 14:54:00,
2013-05-21 07:59:00,66.9,46.0,29.83,SW,224,0.0,0.0,47,0.00,,,0.00,332.0,meteohub,2013-05-21 14:59:00,
2013-05-21 08:04:00,67.6,45.0,29.83,SW,224,0.0,0.0,44,0.00,,,0.00,264.0,meteohub,2013-05-21 15:04:00,
2013-05-21 08:09:00,68.5,43.9,29.83,SW,224,0.0,0.0,41,0.00,,,0.00,415.0,meteohub,2013-05-21 15:09:00,
2013-05-21 08:14:00,69.6,45.5,29.83,SW,224,0.0,0.0,42,0.00,,,0.00,408.0,meteohub,2013-05-21 15:14:00,
2013-05-21 08:19:00,70.5,44.4,29.83,SW,224,0.0,0.0,39,0.00,,,0.00,476.0,meteohub,2013-05-21 15:19:00,
2013-05-21 08:24:00,71.8,44.1,29.83,SW,224,0.0,0.0,37,0.00,,,0.00,388.0,meteohub,2013-05-21 15:24:00,
2013-05-21 08:29:00,72.7,41.9,29.83,SW,224,0.0,0.0,33,0.00,,,0.00,506.0,meteohub,2013-05-21 15:29:00,
2013-05-21 08:34:00,73.6,43.5,29.83,SW,224,0.0,0.0,34,0.00,,,0.00,501.0,meteohub,2013-05-21 15:34:00,
2013-05-21 08:40:00,74.5,45.0,29.83,SW,224,0.0,0.0,35,0.00,,,0.00,327.0,meteohub,2013-05-21 15:40:00,
2013-05-21 08:44:00,75.0,43.2,29.83,SW,224,0.0,0.0,32,0.00,,,0.00,424.0,meteohub,2013-05-21 15:44:00,
2013-05-21 08:49:00,75.9,43.9,29.83,SW,224,0.0,0.0,32,0.00,,,0.00,564.0,meteohub,2013-05-21 15:49:00,
2013-05-21 08:55:00,76.5,43.5,29.83,SW,224,0.0,0.0,31,0.00,,,0.00,316.0,meteohub,2013-05-21 15:55:00,
2013-05-21 09:00:00,77.2,45.0,29.83,SW,224,0.0,0.0,32,0.00,,,0.00,276.0,meteohub,2013-05-21 16:00:00,
2013-05-21 09:05:00,77.5,43.7,29.83,SW,224,0.0,0.0,30,0.00,,,0.00,508.0,meteohub,2013-05-21 16:05:00,
2013-05-21 09:10:00,77.9,44.1,29.83,SW,224,0.0,0.0,30,0.00,,,0.00,378.0,meteohub,2013-05-21 16:10:00,
2013-05-21 09:15:00,78.4,44.4,29.83,SW,224,0.0,0.0,30,0.00,,,0.00,654.0,meteohub,2013-05-21 16:15:00,
2013-05-21 09:20:00,79.3,44.2,29.82,SW,224,0.0,0.0,29,0.00,,,0.00,691.0,meteohub,2013-05-21 16:20:00,
2013-05-21 09:25:00,80.2,46.0,29.82,SW,224,0.0,0.0,30,0.00,,,0.00,459.0,meteohub,2013-05-21 16:25:00,
2013-05-21 09:30:00,81.0,45.7,29.82,SW,224,0.0,0.0,29,0.00,,,0.00,677.0,meteohub,2013-05-21 16:30:00,
2013-05-21 09:35:00,81.5,41.2,29.82,SW,224,0.0,0.0,24,0.00,,,0.00,594.0,meteohub,2013-05-21 16:35:00,
2013-05-21 09:40:00,81.9,42.6,29.82,SW,224,0.0,0.0,25,0.00,,,0.00,749.0,meteohub,2013-05-21 16:40:00,
2013-05-21 09:45:00,82.6,41.0,29.81,SSW,196,4.0,0.0,23,0.00,,,0.00,573.0,meteohub,2013-05-21 16:45:00,
2013-05-21 09:50:00,82.9,40.1,29.81,SSW,198,0.0,0.0,22,0.00,,,0.00,749.0,meteohub,2013-05-21 16:50:00,
2013-05-21 09:55:00,83.7,38.3,29.81,SW,234,1.0,0.0,20,0.00,,,0.00,700.0,meteohub,2013-05-21 16:55:00,
2013-05-21 10:00:00,83.8,37.2,29.81,SW,225,14.0,0.0,19,0.00,,,0.00,661.0,meteohub,2013-05-21 17:00:00,
2013-05-21 10:05:00,84.0,38.7,29.81,SW,232,4.0,0.0,20,0.00,,,0.00,722.0,meteohub,2013-05-21 17:05:00,
2013-05-21 10:10:00,84.0,38.7,29.81,SW,225,3.0,0.0,20,0.00,,,0.00,795.0,meteohub,2013-05-21 17:10:00,
2013-05-21 10:15:00,84.4,37.6,29.81,SW,225,6.0,15.0,19,0.00,,,0.00,693.0,meteohub,2013-05-21 17:15:00,
2013-05-21 10:20:00,84.4,37.6,29.81,SW,221,4.0,15.0,19,0.00,,,0.00,830.0,meteohub,2013-05-21 17:20:00,
2013-05-21 10:25:00,84.6,37.8,29.81,SW,226,4.0,15.0,19,0.00,,,0.00,877.0,meteohub,2013-05-21 17:25:00,
2013-05-21 10:30:00,84.9,38.1,29.81,SW,225,5.0,15.0,19,0.00,,,0.00,874.0,meteohub,2013-05-21 17:30:00,
2013-05-21 10:35:00,85.3,38.3,29.81,SW,221,0.0,15.0,19,0.00,,,0.00,860.0,meteohub,2013-05-21 17:35:00,
2013-05-21 10:40:00,85.5,38.5,29.81,South,176,3.0,15.0,19,0.00,,,0.00,817.0,meteohub,2013-05-21 17:40:00,
2013-05-21 10:45:00,85.6,38.7,29.81,South,186,5.0,15.0,19,0.00,,,0.00,928.0,meteohub,2013-05-21 17:45:00,
2013-05-21 10:50:00,86.0,39.0,29.81,SW,220,6.0,15.0,19,0.00,,,0.00,879.0,meteohub,2013-05-21 17:50:00,
2013-05-21 10:55:00,86.5,39.4,29.81,SW,221,7.0,15.0,19,0.00,,,0.00,896.0,meteohub,2013-05-21 17:55:00,
2013-05-21 11:00:00,86.5,37.9,29.81,SW,225,9.0,18.0,18,0.00,,,0.00,919.0,meteohub,2013-05-21 18:00:00,
2013-05-21 11:05:00,86.2,39.0,29.80,South,191,5.0,18.0,19,0.00,,,0.00,900.0,meteohub,2013-05-21 18:05:00,
2013-05-21 11:10:00,86.2,39.0,29.81,SSW,196,2.0,18.0,19,0.00,,,0.00,995.0,meteohub,2013-05-21 18:10:00,
2013-05-21 11:15:00,86.5,37.9,29.80,SW,217,5.0,18.0,18,0.00,,,0.00,740.0,meteohub,2013-05-21 18:15:00,
2013-05-21 11:20:00,86.7,38.1,29.80,SW,227,1.0,18.0,18,0.00,,,0.00,812.0,meteohub,2013-05-21 18:20:00,
2013-05-21 11:25:00,86.7,39.6,29.80,SW,219,4.0,18.0,19,0.00,,,0.00,958.0,meteohub,2013-05-21 18:25:00,
2013-05-21 11:30:00,87.3,38.7,29.80,SW,225,9.0,18.0,18,0.00,,,0.00,793.0,meteohub,2013-05-21 18:30:00,
2013-05-21 11:35:00,87.1,38.5,29.80,SW,223,13.0,18.0,18,0.00,,,0.00,633.0,meteohub,2013-05-21 18:35:00,
2013-05-21 11:40:00,87.1,38.5,29.80,SSW,209,5.0,13.0,18,0.00,,,0.00,881.0,meteohub,2013-05-21 18:40:00,
2013-05-21 11:45:00,87.4,40.1,29.80,SW,223,9.0,13.0,19,0.00,,,0.00,856.0,meteohub,2013-05-21 18:45:00,
2013-05-21 11:51:00,87.6,38.8,29.79,South,180,4.0,13.0,18,0.00,,,0.00,1053.0,meteohub,2013-05-21 18:51:00,
2013-05-21 11:55:00,87.6,38.8,29.79,SW,228,7.0,13.0,18,0.00,,,0.00,1067.0,meteohub,2013-05-21 18:55:00,
2013-05-21 12:00:00,87.4,40.1,29.79,SW,225,11.0,13.0,19,0.00,,,0.00,633.0,meteohub,2013-05-21 19:00:00,
2013-05-21 12:06:00,87.6,40.3,29.79,SW,219,5.0,13.0,19,0.00,,,0.00,1051.0,meteohub,2013-05-21 19:06:00,
2013-05-21 12:11:00,88.2,40.6,29.79,South,181,7.0,13.0,19,0.00,,,0.00,860.0,meteohub,2013-05-21 19:11:00,
2013-05-21 12:16:00,88.0,40.6,29.79,South,186,5.0,13.0,19,0.00,,,0.00,983.0,meteohub,2013-05-21 19:16:00,
2013-05-21 12:21:00,87.8,40.5,29.78,SW,224,6.0,13.0,19,0.00,,,0.00,657.0,meteohub,2013-05-21 19:21:00,
2013-05-21 12:26:00,87.4,40.1,29.79,SW,225,2.0,16.0,19,0.00,,,0.00,847.0,meteohub,2013-05-21 19:26:00,
2013-05-21 12:31:00,87.6,41.5,29.79,SW,226,4.0,16.0,20,0.00,,,0.00,719.0,meteohub,2013-05-21 19:31:00,
2013-05-21 12:36:00,87.8,40.5,29.78,SW,234,5.0,16.0,19,0.00,,,0.00,712.0,meteohub,2013-05-21 19:36:00,
2013-05-21 12:41:00,88.3,40.8,29.78,SW,219,5.0,16.0,19,0.00,,,0.00,1051.0,meteohub,2013-05-21 19:41:00,
2013-05-21 12:46:00,88.3,40.8,29.78,SW,220,6.0,16.0,19,0.00,,,0.00,1044.0,meteohub,2013-05-21 19:46:00,
2013-05-21 12:51:00,88.3,40.8,29.78,SSW,211,5.0,16.0,19,0.00,,,0.00,814.0,meteohub,2013-05-21 19:51:00,
2013-05-21 12:56:00,88.0,40.6,29.78,SSW,212,7.0,16.0,19,0.00,,,0.00,814.0,meteohub,2013-05-21 19:56:00,
2013-05-21 13:01:00,87.8,40.5,29.78,SW,225,7.0,16.0,19,0.00,,,0.00,1058.0,meteohub,2013-05-21 20:01:00,
2013-05-21 13:06:00,88.3,42.3,29.78,SW,229,14.0,16.0,20,0.00,,,0.00,1007.0,meteohub,2013-05-21 20:06:00,
2013-05-21 13:11:00,88.0,41.9,29.78,SSW,207,2.0,16.0,20,0.00,,,0.00,1063.0,meteohub,2013-05-21 20:11:00,
2013-05-21 13:16:00,88.2,42.1,29.77,South,170,6.0,16.0,20,0.00,,,0.00,889.0,meteohub,2013-05-21 20:16:00,
2013-05-21 13:21:00,88.3,42.3,29.77,SW,215,7.0,19.0,20,0.00,,,0.00,1042.0,meteohub,2013-05-21 20:21:00,
2013-05-21 13:26:00,88.3,42.3,29.78,SW,234,5.0,19.0,20,0.00,,,0.00,773.0,meteohub,2013-05-21 20:26:00,
2013-05-21 13:31:00,88.2,40.6,29.77,SW,231,15.0,19.0,19,0.00,,,0.00,1056.0,meteohub,2013-05-21 20:31:00,
2013-05-21 13:36:00,88.0,41.9,29.77,SW,223,9.0,19.0,20,0.00,,,0.00,645.0,meteohub,2013-05-21 20:36:00,
2013-05-21 13:41:00,88.3,43.5,29.77,SW,214,4.0,19.0,21,0.00,,,0.00,1020.0,meteohub,2013-05-21 20:41:00,
2013-05-21 13:46:00,88.5,44.8,29.77,South,186,1.0,19.0,22,0.00,,,0.00,1004.0,meteohub,2013-05-21 20:46:00,
2013-05-21 13:51:00,88.9,46.2,29.77,South,184,19.0,19.0,23,0.00,,,0.00,1000.0,meteohub,2013-05-21 20:51:00,
2013-05-21 13:56:00,88.5,46.0,29.77,SSW,207,6.0,19.0,23,0.00,,,0.00,990.0,meteohub,2013-05-21 20:56:00,
2013-05-21 14:01:00,88.5,46.0,29.76,SW,218,5.0,19.0,23,0.00,,,0.00,990.0,meteohub,2013-05-21 21:01:00,
2013-05-21 14:06:00,88.5,47.1,29.76,SSW,201,0.0,19.0,24,0.00,,,0.00,998.0,meteohub,2013-05-21 21:06:00,
2013-05-21 14:11:00,88.9,46.2,29.76,South,178,10.0,20.0,23,0.00,,,0.00,1011.0,meteohub,2013-05-21 21:11:00,
2013-05-21 14:16:00,88.7,46.2,29.76,SSE,158,8.0,20.0,23,0.00,,,0.00,1030.0,meteohub,2013-05-21 21:16:00,
2013-05-21 14:21:00,88.7,46.2,29.76,South,188,4.0,20.0,23,0.00,,,0.00,930.0,meteohub,2013-05-21 21:21:00,
2013-05-21 14:26:00,88.3,45.9,29.76,SSW,207,6.0,20.0,23,0.00,,,0.00,893.0,meteohub,2013-05-21 21:26:00,
2013-05-21 14:31:00,88.0,45.5,29.76,SW,222,9.0,20.0,23,0.00,,,0.00,1107.0,meteohub,2013-05-21 21:31:00,
2013-05-21 14:36:00,88.0,44.4,29.75,South,180,11.0,20.0,22,0.00,,,0.00,1072.0,meteohub,2013-05-21 21:36:00,
2013-05-21 14:41:00,88.2,43.3,29.75,South,182,4.0,20.0,21,0.00,,,0.00,705.0,meteohub,2013-05-21 21:41:00,
2013-05-21 14:46:00,88.2,45.7,29.75,SW,223,9.0,20.0,23,0.00,,,0.00,942.0,meteohub,2013-05-21 21:46:00,
2013-05-21 14:51:00,88.5,46.0,29.75,SW,232,9.0,20.0,23,0.00,,,0.00,932.0,meteohub,2013-05-21 21:51:00,
2013-05-21 14:56:00,88.9,43.9,29.75,South,191,4.0,20.0,21,0.00,,,0.00,916.0,meteohub,2013-05-21 21:56:00,
2013-05-21 15:01:00,89.1,45.3,29.74,South,182,6.0,18.0,22,0.00,,,0.00,905.0,meteohub,2013-05-21 22:01:00,
2013-05-21 15:06:00,88.5,44.8,29.74,SSW,195,7.0,18.0,22,0.00,,,0.00,884.0,meteohub,2013-05-21 22:06:00,
2013-05-21 15:11:00,88.5,46.0,29.74,SW,228,15.0,18.0,23,0.00,,,0.00,851.0,meteohub,2013-05-21 22:11:00,
2013-05-21 15:16:00,88.0,44.4,29.74,SSW,202,6.0,18.0,22,0.00,,,0.00,881.0,meteohub,2013-05-21 22:16:00,
2013-05-21 15:21:00,88.0,45.5,29.74,SW,224,6.0,18.0,23,0.00,,,0.00,963.0,meteohub,2013-05-21 22:21:00,
2013-05-21 15:26:00,88.2,44.6,29.73,SW,223,5.0,18.0,22,0.00,,,0.00,995.0,meteohub,2013-05-21 22:26:00,
2013-05-21 15:31:00,88.2,47.8,29.73,SSW,213,6.0,18.0,25,0.00,,,0.00,983.0,meteohub,2013-05-21 22:31:00,
2013-05-21 15:36:00,88.5,47.1,29.73,SSW,211,6.0,18.0,24,0.00,,,0.00,993.0,meteohub,2013-05-21 22:36:00,
2013-05-21 15:41:00,88.9,47.5,29.73,SSW,200,7.0,18.0,24,0.00,,,0.00,979.0,meteohub,2013-05-21 22:41:00,
2013-05-21 15:47:00,88.9,48.6,29.73,WSW,240,19.0,21.0,25,0.00,,,0.00,840.0,meteohub,2013-05-21 22:47:00,
2013-05-21 15:52:00,87.8,48.6,29.73,South,184,12.0,21.0,26,0.00,,,0.00,967.0,meteohub,2013-05-21 22:52:00,
2013-05-21 15:57:00,87.1,49.1,29.73,South,186,8.0,21.0,27,0.00,,,0.00,835.0,meteohub,2013-05-21 22:57:00,
2013-05-21 16:02:00,86.7,47.7,29.72,SW,222,16.0,21.0,26,0.00,,,0.00,313.0,meteohub,2013-05-21 23:02:00,
2013-05-21 16:07:00,86.7,48.7,29.72,SW,218,8.0,21.0,27,0.00,,,0.00,742.0,meteohub,2013-05-21 23:07:00,
2013-05-21 16:12:00,86.9,48.9,29.72,SW,216,14.0,21.0,27,0.00,,,0.00,606.0,meteohub,2013-05-21 23:12:00,
2013-05-21 16:17:00,86.5,49.6,29.71,SW,229,15.0,21.0,28,0.00,,,0.00,728.0,meteohub,2013-05-21 23:17:00,
2013-05-21 16:22:00,86.4,49.5,29.71,SSW,203,7.0,21.0,28,0.00,,,0.00,703.0,meteohub,2013-05-21 23:22:00,
2013-05-21 16:27:00,86.7,49.6,29.71,SW,214,6.0,21.0,28,0.00,,,0.00,659.0,meteohub,2013-05-21 23:27:00,
2013-05-21 16:32:00,86.4,47.5,29.71,SW,220,13.0,21.0,26,0.00,,,0.00,638.0,meteohub,2013-05-21 23:32:00,
2013-05-21 16:37:00,86.7,50.7,29.70,SSW,203,6.0,21.0,29,0.00,,,0.00,617.0,meteohub,2013-05-21 23:37:00,
2013-05-21 16:42:00,87.1,50.9,29.70,SW,223,15.0,21.0,29,0.00,,,0.00,603.0,meteohub,2013-05-21 23:42:00,
2013-05-21 16:47:00,86.7,48.7,29.70,SW,227,11.0,21.0,27,0.00,,,0.00,582.0,meteohub,2013-05-21 23:47:00,
2013-05-21 16:52:00,86.4,49.5,29.71,South,190,2.0,21.0,28,0.00,,,0.00,561.0,meteohub,2013-05-21 23:52:00,
2013-05-21 16:57:00,86.2,50.2,29.71,SW,219,7.0,21.0,29,0.00,,,0.00,547.0,meteohub,2013-05-21 23:57:00,
2013-05-21 17:02:00,86.0,47.1,29.71,SSW,197,8.0,21.0,26,0.00,,,0.00,526.0,meteohub,2013-05-22 00:02:00,
2013-05-21 17:07:00,85.8,48.9,29.71,South,187,5.0,21.0,28,0.00,,,0.00,517.0,meteohub,2013-05-22 00:07:00,
2013-05-21 17:12:00,85.3,51.3,29.71,SSW,196,4.0,20.0,31,0.00,,,0.00,494.0,meteohub,2013-05-22 00:12:00,
2013-05-21 17:17:00,84.7,51.6,29.71,SSW,206,9.0,20.0,32,0.00,,,0.00,475.0,meteohub,2013-05-22 00:17:00,
2013-05-21 17:22:00,84.7,50.7,29.70,SW,234,15.0,20.0,31,0.00,,,0.00,461.0,meteohub,2013-05-22 00:22:00,
2013-05-21 17:27:00,84.4,48.7,29.71,SSW,205,10.0,20.0,29,0.00,,,0.00,441.0,meteohub,2013-05-22 00:27:00,
2013-05-21 17:32:00,84.0,50.2,29.70,SSW,208,5.0,20.0,31,0.00,,,0.00,424.0,meteohub,2013-05-22 00:32:00,
2013-05-21 17:37:00,83.8,50.9,29.71,SW,215,11.0,20.0,32,0.00,,,0.00,406.0,meteohub,2013-05-22 00:37:00,
2013-05-21 17:42:00,83.7,50.7,29.70,SSW,208,4.0,20.0,32,0.00,,,0.00,394.0,meteohub,2013-05-22 00:42:00,
2013-05-21 17:47:00,83.3,50.4,29.70,SSW,200,2.0,20.0,32,0.00,,,0.00,376.0,meteohub,2013-05-22 00:47:00,
2013-05-21 17:52:00,83.3,51.3,29.70,SW,227,14.0,25.0,33,0.00,,,0.00,357.0,meteohub,2013-05-22 00:52:00,
2013-05-21 17:57:00,83.5,48.7,29.70,SSE,161,2.0,25.0,30,0.00,,,0.00,339.0,meteohub,2013-05-22 00:57:00,
2013-05-21 18:02:00,83.5,51.4,29.70,SSW,198,4.0,25.0,33,0.00,,,0.00,315.0,meteohub,2013-05-22 01:02:00,
2013-05-21 18:07:00,83.5,52.2,29.70,SW,217,4.0,25.0,34,0.00,,,0.00,302.0,meteohub,2013-05-22 01:07:00,
2013-05-21 18:12:00,83.5,49.6,29.70,SW,227,7.0,25.0,31,0.00,,,0.00,287.0,meteohub,2013-05-22 01:12:00,
2013-05-21 18:17:00,83.5,51.4,29.70,SSW,211,5.0,25.0,33,0.00,,,0.00,265.0,meteohub,2013-05-22 01:17:00,
2013-05-21 18:22:00,82.9,50.9,29.70,SSW,213,14.0,25.0,33,0.00,,,0.00,250.0,meteohub,2013-05-22 01:22:00,
2013-05-21 18:27:00,82.0,50.2,29.70,South,185,4.0,25.0,33,0.00,,,0.00,232.0,meteohub,2013-05-22 01:27:00,
2013-05-21 18:32:00,81.9,50.7,29.70,SW,232,8.0,25.0,34,0.00,,,0.00,209.0,meteohub,2013-05-22 01:32:00,
2013-05-21 18:37:00,81.7,50.5,29.70,South,185,4.0,25.0,34,0.00,,,0.00,186.0,meteohub,2013-05-22 01:37:00,
2013-05-21 18:42:00,81.5,50.4,29.70,SW,218,6.0,23.0,34,0.00,,,0.00,169.0,meteohub,2013-05-22 01:42:00,
2013-05-21 18:47:00,81.1,49.3,29.70,SSW,202,9.0,23.0,33,0.00,,,0.00,149.0,meteohub,2013-05-22 01:47:00,
2013-05-21 18:52:00,80.6,48.9,29.70,SW,217,10.0,23.0,33,0.00,,,0.00,132.0,meteohub,2013-05-22 01:52:00,
2013-05-21 18:57:00,80.4,48.7,29.70,SW,223,6.0,23.0,33,0.00,,,0.00,116.0,meteohub,2013-05-22 01:57:00,
2013-05-21 19:02:00,80.2,49.3,29.70,SSW,201,4.0,23.0,34,0.00,,,0.00,100.0,meteohub,2013-05-22 02:02:00,
2013-05-21 19:07:00,79.5,48.7,29.70,SW,218,7.0,23.0,34,0.00,,,0.00,83.0,meteohub,2013-05-22 02:07:00,
2013-05-21 19:12:00,79.2,49.1,29.70,SW,230,8.0,23.0,35,0.00,,,0.00,67.0,meteohub,2013-05-22 02:12:00,
2013-05-21 19:17:00,78.8,48.9,29.70,SW,219,4.0,23.0,35,0.00,,,0.00,53.0,meteohub,2013-05-22 02:17:00,
2013-05-21 19:23:00,78.4,48.6,29.71,SW,221,8.0,23.0,35,0.00,,,0.00,40.0,meteohub,2013-05-22 02:23:00,
2013-05-21 19:28:00,78.1,48.2,29.70,SW,221,7.0,23.0,35,0.00,,,0.00,30.0,meteohub,2013-05-22 02:28:00,
2013-05-21 19:33:00,77.7,47.8,29.71,SW,229,5.0,20.0,35,0.00,,,0.00,19.0,meteohub,2013-05-22 02:33:00,
2013-05-21 19:38:00,77.4,47.5,29.71,SW,232,10.0,20.0,35,0.00,,,0.00,14.0,meteohub,2013-05-22 02:38:00,
2013-05-21 19:43:00,77.0,47.3,29.71,SW,229,4.0,20.0,35,0.00,,,0.00,11.0,meteohub,2013-05-22 02:43:00,
2013-05-21 19:48:00,76.6,48.4,29.71,SW,226,4.0,20.0,37,0.00,,,0.00,7.0,meteohub,2013-05-22 02:48:00,
2013-05-21 19:53:00,76.5,48.9,29.71,SSW,213,3.0,20.0,38,0.00,,,0.00,5.0,meteohub,2013-05-22 02:53:00,
2013-05-21 19:58:00,76.3,49.5,29.72,SW,223,5.0,20.0,39,0.00,,,0.00,0.0,meteohub,2013-05-22 02:58:00,
2013-05-21 20:03:00,75.9,49.8,29.72,SW,226,7.0,20.0,40,0.00,,,0.00,0.0,meteohub,2013-05-22 03:03:00,
2013-05-21 20:08:00,75.6,50.2,29.72,SW,219,6.0,20.0,41,0.00,,,0.00,0.0,meteohub,2013-05-22 03:08:00,
2013-05-21 20:13:00,75.4,50.0,29.72,SW,226,10.0,20.0,41,0.00,,,0.00,0.0,meteohub,2013-05-22 03:13:00,
2013-05-21 20:18:00,74.8,50.2,29.72,SW,223,10.0,20.0,42,0.00,,,0.00,0.0,meteohub,2013-05-22 03:18:00,
2013-05-21 20:23:00,74.7,50.7,29.72,SW,225,5.0,20.0,43,0.00,,,0.00,0.0,meteohub,2013-05-22 03:23:00,
2013-05-21 20:28:00,74.3,50.4,29.72,SW,226,4.0,15.0,43,0.00,,,0.00,0.0,meteohub,2013-05-22 03:28:00,
2013-05-21 20:33:00,73.9,50.0,29.72,SW,225,9.0,15.0,43,0.00,,,0.00,0.0,meteohub,2013-05-22 03:33:00,
2013-05-21 20:38:00,73.8,49.8,29.72,SW,215,8.0,15.0,43,0.00,,,0.00,0.0,meteohub,2013-05-22 03:38:00,
2013-05-21 20:43:00,73.6,50.4,29.72,SW,219,3.0,15.0,44,0.00,,,0.00,0.0,meteohub,2013-05-22 03:43:00,
2013-05-21 20:48:00,73.2,50.0,29.72,SW,217,2.0,15.0,44,0.00,,,0.00,0.0,meteohub,2013-05-22 03:48:00,
2013-05-21 20:53:00,73.0,50.4,29.72,SW,216,4.0,15.0,45,0.00,,,0.00,0.0,meteohub,2013-05-22 03:53:00,
2013-05-21 20:58:00,72.9,50.4,29.72,SW,221,6.0,15.0,45,0.00,,,0.00,0.0,meteohub,2013-05-22 03:58:00,
2013-05-21 21:01:00,72.7,50.2,29.72,SW,217,4.0,15.0,45,0.00,,,0.00,0.0,meteohub,2013-05-22 04:01:00,
2013-05-21 21:02:00,72.7,49.5,29.72,SW,217,2.0,15.0,44,0.00,,,0.00,0.0,meteohub,2013-05-22 04:02:00,
2013-05-21 21:07:00,72.5,49.3,29.72,SW,221,4.0,15.0,44,0.00,,,0.00,0.0,meteohub,2013-05-22 04:07:00,
2013-05-21 21:12:00,72.3,49.1,29.72,SSW,213,3.0,15.0,44,0.00,,,0.00,0.0,meteohub,2013-05-22 04:12:00,
2013-05-21 21:17:00,72.1,48.4,29.72,SSW,212,1.0,15.0,43,0.00,,,0.00,0.0,meteohub,2013-05-22 04:17:00,
2013-05-21 21:22:00,72.1,48.4,29.72,South,187,1.0,15.0,43,0.00,,,0.00,0.0,meteohub,2013-05-22 04:22:00,
2013-05-21 21:27:00,72.1,47.1,29.73,SSW,196,4.0,15.0,41,0.00,,,0.00,0.0,meteohub,2013-05-22 04:27:00,
2013-05-21 21:33:00,72.1,47.1,29.73,SSW,199,2.0,15.0,41,0.00,,,0.00,0.0,meteohub,2013-05-22 04:33:00,
2013-05-21 21:38:00,72.0,46.4,29.73,SW,215,7.0,15.0,40,0.00,,,0.00,0.0,meteohub,2013-05-22 04:38:00,
2013-05-21 21:43:00,72.0,45.7,29.73,SSW,211,1.0,15.0,39,0.00,,,0.00,0.0,meteohub,2013-05-22 04:43:00,
2013-05-21 21:48:00,72.0,45.0,29.73,SSW,211,2.0,15.0,38,0.00,,,0.00,0.0,meteohub,2013-05-22 04:48:00,
2013-05-21 21:53:00,72.0,44.2,29.73,SSW,211,5.0,15.0,37,0.00,,,0.00,0.0,meteohub,2013-05-22 04:53:00,
2013-05-21 21:58:00,72.0,44.2,29.72,SSW,213,0.0,10.0,37,0.00,,,0.00,0.0,meteohub,2013-05-22 04:58:00,
2013-05-21 22:03:00,72.0,44.2,29.73,SSW,213,6.0,10.0,37,0.00,,,0.00,0.0,meteohub,2013-05-22 05:03:00,
2013-05-21 22:08:00,71.8,44.1,29.73,SSW,213,2.0,10.0,37,0.00,,,0.00,0.0,meteohub,2013-05-22 05:08:00,
2013-05-21 22:13:00,71.8,44.1,29.73,SSW,209,1.0,10.0,37,0.00,,,0.00,0.0,meteohub,2013-05-22 05:13:00,
2013-05-21 22:18:00,71.8,44.1,29.73,SW,216,2.0,10.0,37,0.00,,,0.00,0.0,meteohub,2013-05-22 05:18:00,
2013-05-21 22:23:00,71.6,43.2,29.73,SW,216,4.0,10.0,36,0.00,,,0.00,0.0,meteohub,2013-05-22 05:23:00,
2013-05-21 22:28:00,71.6,42.4,29.73,SW,221,7.0,10.0,35,0.00,,,0.00,0.0,meteohub,2013-05-22 05:28:00,
2013-05-21 22:33:00,71.8,41.9,29.73,SW,221,2.0,10.0,34,0.00,,,0.00,0.0,meteohub,2013-05-22 05:33:00,
2013-05-21 22:38:00,72.0,42.1,29.73,SW,221,1.0,10.0,34,0.00,,,0.00,0.0,meteohub,2013-05-22 05:38:00,
2013-05-21 22:43:00,72.0,40.5,29.73,SW,221,5.0,10.0,32,0.00,,,0.00,0.0,meteohub,2013-05-22 05:43:00,
2013-05-21 22:48:00,72.1,40.6,29.73,SW,221,6.0,11.0,32,0.00,,,0.00,0.0,meteohub,2013-05-22 05:48:00,
2013-05-21 22:53:00,72.3,40.8,29.73,SW,229,7.0,11.0,32,0.00,,,0.00,0.0,meteohub,2013-05-22 05:53:00,
2013-05-21 22:58:00,72.1,40.6,29.73,SW,224,5.0,11.0,32,0.00,,,0.00,0.0,meteohub,2013-05-22 05:58:00,
2013-05-21 23:03:00,72.3,40.8,29.73,SW,225,8.0,11.0,32,0.00,,,0.00,0.0,meteohub,2013-05-22 06:03:00,
2013-05-21 23:08:00,72.3,39.9,29.73,SW,226,12.0,12.0,31,0.00,,,0.00,0.0,meteohub,2013-05-22 06:08:00,
2013-05-21 23:13:00,72.1,40.6,29.73,SW,215,11.0,11.0,32,0.00,,,0.00,0.0,meteohub,2013-05-22 06:13:00,
2013-05-21 23:18:00,72.0,42.1,29.73,SSW,212,10.0,11.0,34,0.00,,,0.00,0.0,meteohub,2013-05-22 06:18:00,
2013-05-21 23:23:00,71.4,43.2,29.73,WSW,246,14.0,14.0,36,0.00,,,0.00,0.0,meteohub,2013-05-22 06:23:00,
2013-05-21 23:28:00,71.1,42.8,29.73,SW,227,9.0,26.0,36,0.00,,,0.00,0.0,meteohub,2013-05-22 06:28:00,
2013-05-21 23:33:00,70.9,43.3,29.74,WSW,244,16.0,26.0,37,0.00,,,0.00,0.0,meteohub,2013-05-22 06:33:00,
2013-05-21 23:38:00,70.5,43.7,29.74,SW,232,5.0,26.0,38,0.00,,,0.00,0.0,meteohub,2013-05-22 06:38:00,
2013-05-21 23:43:00,70.3,43.5,29.74,WSW,244,16.0,26.0,38,0.00,,,0.00,0.0,meteohub,2013-05-22 06:43:00,
2013-05-21 23:48:00,70.2,44.1,29.73,SW,234,11.0,26.0,39,0.00,,,0.00,0.0,meteohub,2013-05-22 06:48:00,
2013-05-21 23:53:00,69.8,43.7,29.73,SW,223,14.0,26.0,39,0.00,,,0.00,0.0,meteohub,2013-05-22 06:53:00,
2013-05-21 23:58:00,69.4,43.3,29.73,SW,232,13.0,26.0,39,0.00,,,0.00,0.0,meteohub,2013-05-22 06:58:00,